User: anonymous   Login
Location: Caltech
(34.1382°N, 118.1253°W)
Time: 18:03:46
(UTC-07:00)
Language:

Oscar 11 - Orbit

View from above orbital plane
View from above orbital plane
View from above satellite
View from above satellite

Ground track
Ground track

The orbit data is extracted from the following two-line orbital elements,

1 14781U 84021B   14297.75955707  .00001377  00000-0  18068-3 0  6456
2 14781 097.8365 355.2637 0010083 117.5008 242.7231 14.81831510647152
Epoch (UTC): 24 October 2014 18:13:45
Eccentricity: 0.0010083
inclination: 97.8365°
perigee height: 616 km
apogee height: 630 km
right ascension of ascending node: 355.2637°
argument of perigee: 117.5008°
revolutions per day: 14.81831510
mean anomaly at epoch: 242.7231°
orbit number at epoch: 64715

The dashed part of the orbit path shows where the satellite is in the earth's shadow,  

DLR